Regional Weather Roundup
Issued by NWS Cleveland, OH

Home | Current Version | Previous Version | Text Only | Print | Product List | Glossary Off
Versions: 1 2 3 4 5 6 7 8 9 10 11 12 13 14 15 16 17 18 19 20 21 22 23 24 25 26 27 28 29 30 31 32 33 34 35 36 37 38 39 40 41 42 43 44 45 46 47 48 49 50

000
ASUS41 KCLE 101302
RWRCLE
OHIO REGIONAL WEATHER ROUNDUP
NATIONAL WEATHER SERVICE CLEVELAND, OH
800 AM EST SAT DEC 10 2016

NOTE: "FAIR" INDICATES FEW OR NO CLOUDS BELOW 12,000 FEET WITH NO
SIGNIFICANT WEATHER AND/OR OBSTRUCTIONS TO VISIBILITY.

OHZ001>008-015>018-024>027-034-035-043-044-101400-
   NORTHWEST OHIO

CITY           SKY/WX    TMP DP  RH WIND       PRES   REMARKS
DEFIANCE       MOCLDY    21  13  71 SW6       30.50S WCI  13
FINDLAY        CLOUDY    21  12  68 W12       30.50R WCI   9
TOLEDO EXPRESS PTCLDY    20  15  81 W13       30.48R WCI   7
TOLEDO EXEC    CLOUDY    22  15  75 W10       30.49S WCI  11
LIMA           CLOUDY    18  14  84 SW6       30.50R WCI  10
$$

OHZ009>014-019>023-028>033-038-089-101400-
   NORTHEAST OHIO

CITY           SKY/WX    TMP DP  RH WIND       PRES   REMARKS
CLE-HOPKINS    CLOUDY    24  14  65 SW13      30.49R WCI  12
CLE-LAKEFRONT  CLOUDY    24  16  71 SW22      30.45R HAZE    WCI   9
CUY CO. ARPT   LGT SNOW  25  19  80 W12G21    30.43R WCI  14
LORAIN-ELYRIA  CLOUDY    22  13  68 W13       30.47S WCI  10
ASHTABULA      LGT SNOW  22  20  92 SW12      30.41R VSB 3/4 WCI  10
AKRON-CANTON   CLOUDY    22  14  71 W13       30.45R WCI  10
WOOSTER        MOCLDY    20  14  77 W12       30.47R WCI   8
MANSFIELD      PTCLDY    18  15  88 SW7       30.46R WCI   9
YOUNGSTOWN     CLOUDY    23  15  71 SW17      30.41R WCI   9
$$

OHZ042-051>053-060>062-070>072-077>081-101400-
  SOUTHWEST OHIO

CITY           SKY/WX    TMP DP  RH WIND       PRES   REMARKS
CINC-COVINGTON CLOUDY    20  17  88 SW3       30.55R
CINC-LUNKEN    CLOUDY    22  19  89 S5        30.60R WCI  16
HAMILTON       CLOUDY    22  18  85 SW3       30.58R
DAYTON         CLOUDY    22  17  81 W7        30.52S WCI  13
WRIGHT-PAT AFB CLOUDY    22  18  83 SW6       30.53R WCI  15
DAYTON GENERAL CLOUDY    21  17  84 S6        30.52S WCI  13
WILMINGTON     CLOUDY    20  17  88 SW6       30.52S WCI  12
$$

OHZ036-037-039>041-045>050-054>059-063>069-073>076-082>088-101400-
  CENTRAL AND SOUTHEAST OHIO

CITY           SKY/WX    TMP DP  RH WIND       PRES   REMARKS
COLUMBUS       FLURRIES  23  20  88 W9        30.52S WCI  13
OSU AIRPORT    CLOUDY    23  17  78 NW7       30.51S WCI  15
BOLTON FIELD   CLOUDY    21  18  86 W7        30.53S WCI  13
RICKENBACK AFB   N/A     22  18  82 SW6       30.53S WCI  15
NEWARK         CLOUDY    24  17  74 SW7       30.52R WCI  16
MARION         CLOUDY    20  13  74 W9        30.49F WCI   9
LANCASTER      CLOUDY    23  18  81 SW6       30.53S WCI  16
ZANESVILLE     FLURRIES  23  17  78 W8        30.52R WCI  14
NEW PHILLY     NOT AVBL
$$



USA.gov is the U.S. government's official web portal to all federal, state and local government web resources and services.